EW2751 Weather Reports


time (UTC)temp
F
wind
direction
speed
knots
gust
knots
rain 1hr
in
rain 24hr
in
rain mn
in
humidity
%
barometer
mb
20260506023026 67 47 4.3 7.8 0.00 0.05 0.05 80 1026.5
20260506022524 67 79 3.5 7.8 0.00 0.05 0.05 80 1026.5
20260506014520 68 47 3.5 8.7 0.00 0.05 0.05 79 1026.8
20260506014034 68 56 3.5 10.4 0.00 0.05 0.05 79 1026.7
20260506014013 68 32 3.5 10.4 0.00 0.05 0.05 80 1026.7
20260506012022 68 45 4.3 9.6 0.01 0.05 0.05 80 1026.9
20260506011522 68 64 4.3 10.4 0.01 0.05 0.05 81 1026.8
20260506011019 68 54 5.2 10.4 0.01 0.05 0.05 82 1026.8
20260506010520 68 56 2.6 8.7 0.01 0.05 0.05 83 1026.9
20260506010020 67 100 4.3 10.4 0.01 0.05 0.05 83 1027.0
20260506005520 67 75 5.2 10.4 0.01 0.05 0.05 84 1027.0
20260506005020 68 41 3.5 7.8 0.01 0.05 0.05 87 1027.0
20260506004533 67 355 2.6 6.1 0.02 0.05 0.05 88 1027.0
20260506003008 67 67 1.7 8.7 0.01 0.04 0.04 86 1027.2
20260506002031 67 64 3.5 6.1 0.01 0.04 0.04 86 1027.5
20260506001516 66 132 1.7 7.8 0.01 0.04 0.04 87 1027.6
20260506001017 66 92 2.6 7.8 0.01 0.04 0.04 87 1027.6
20260506000529 66 360 3.5 7.0 0.01 0.04 0.04 87 1027.8
20260506000017 65 70 2.6 4.3 0.01 0.04 0.04 88 1027.8
20260505235515 65 47 0.9 6.1 0.01 0.04 0.04 86 1028.0
20260505235015 65 65 2.6 6.1 0.00 0.03 0.03 85 1028.0
20260505234515 66 324 1.7 7.0 0.00 0.03 0.03 83 1028.1
20260505233515 67 67 2.6 7.0 0.00 0.03 0.03 83 1028.0
20260505233022 67 83 3.5 7.8 0.00 0.03 0.03 83 1028.0
20260505230020 68 107 3.5 7.8 0.00 0.03 0.03 82 1028.2
20260505222517 67 116 3.5 6.1 0.01 0.03 0.03 83 1028.6
20260505222018 67 80 1.7 7.0 0.01 0.03 0.03 85 1028.5
20260505221518 67 83 3.5 7.0 0.01 0.03 0.03 86 1028.6
20260505221015 66 49 3.5 6.1 0.01 0.03 0.03 87 1028.7
20260505220516 65 103 1.7 7.0 0.01 0.03 0.03 86 1028.7
20260505220017 66 94 3.5 6.1 0.01 0.03 0.03 86 1028.8
20260505215516 66 78 3.5 7.0 0.01 0.03 0.03 85 1028.9
20260505215016 66 75 1.7 6.1 0.01 0.03 0.03 84 1028.9
20260505214529 67 78 2.6 7.0 0.01 0.03 0.03 84 1028.9
20260505214017 67 99 2.6 7.0 0.00 0.02 0.02 83 1028.9
20260505213529 68 64 2.6 3.5 0.00 0.02 0.02 85 1028.9
20260505213016 68 111 0.9 5.2 0.00 0.02 0.02 86 1028.9
20260505212517 67 57 1.7 6.1 0.00 0.02 0.02 86 1028.9
20260505212018 67 80 1.7 5.2 0.00 0.02 0.02 87 1028.9
20260505204021 65 164 0.0 0.9 0.00 0.02 0.02 92 1028.9
20260505192518 62 182 0.0 0.0 0.00 0.02 0.02 93 1028.6
20260505095552 60 131 0.0 0.9 0.00 0.00 0.00 88 1030.4
20260505093034 60 133 0.0 0.0 0.00 0.00 0.00 88 1030.4
20260505054015 63 109 2.6 7.0 0.00 0.00 0.00 83 1029.8
20260505054008 63 88 2.6 7.0 0.00 0.00 0.00 83 1029.8
20260505053546 63 60 3.5 7.8 0.00 0.00 0.00 83 1029.7
20260505052516 63 103 5.2 8.7 0.00 0.00 0.00 83 1029.7
20260505052015 63 99 6.1 8.7 0.00 0.00 0.00 83 1029.7
20260505040522 65 98 7.0 11.3 0.00 0.00 0.00 80 1029.9
20260505035018 65 90 7.0 13.0 0.00 0.00 0.00 80 1029.9
20260505035008 65 68 7.0 13.0 0.00 0.00 0.00 80 1029.9